Wind_Speed
11 14 16 16 17 19 21 23 26 28 29 33 30 29 24 25 29 32 31 28 30 35 35 32 32 34 35 34 29 27 23 25 23 20 17 13 11 11 14 19 19 17 20 16 20
12 14 18 16 16 16 19 21 23 27 30 34 30 33 29 30 31 34 23 26 25 30 34 31 30 30 33 34 26 28 26 29 20 18 19 14 15 14 16 15 15 16 17 21 24
13 14 18 15 14 13 16 20 24 26 27 30 32 32 36 32 35 41 34 26 25 27 30 32 31 27 29 29 31 27 34 23 22 21 19 18 18 15 17 22 19 14 15 16 24
15 13 15 14 13 13 18 22 24 25 26 28 30 34 36 37 20 23 25 28 28 28 28 28 29 32 30 35 30 33 29 30 23 22 19 20 20 21 19 22 21 23 23 23 27
15 14 13 16 14 14 18 21 22 25 25 26 28 31 31 33 34 31 20 13 17 27 24 25 27 31 33 31 32 35 32 27 27 25 21 21 25 26 25 21 19 24 26 30 28
15 15 14 17 15 14 15 19 21 23 25 25 26 25 28 32 30 33 34 26 17 14 24 27 26 27 28 28 33 30 30 30 24 24 23 22 24 22 24 16 19 22 28 31 33
16 17 14 16 14 14 16 20 19 20 22 24 26 23 28 30 30 30 31 31 31 28 19 21 27 23 27 27 33 34 25 26 31 25 24 21 27 28 23 18 23 21 24 33 35
18 18 18 17 15 13 16 18 17 17 20 22 22 22 29 25 29 27 28 26 24 27 31 29 21 29 31 32 20 39 37 31 28 26 25 22 26 14 11 18 11 15 19 23 30
19 20 22 19 18 14 15 19 21 18 20 22 22 24 30 27 27 25 25 26 25 25 23 28 30 30 35 32 34 34 36 39 26 25 24 23 21 18 19 21 15 13 15 14 17
19 20 24 23 23 18 17 18 21 21 21 22 23 22 27 17 14 25 27 26 27 21 22 29 30 33 38 39 34 34 40 27 33 27 26 27 27 22 15 14 14 12 16 12 12
19 20 22 25 26 23 21 22 21 26 30 32 22 28 29 19 14 17 20 25 28 24 28 29 33 37 43 46 37 34 30 34 23 28 29 26 25 22 20 19 16 15 17 14 12
19 19 21 24 27 23 20 20 25 28 33 32 32 35 29 28 27 23 21 24 27 30 26 30 38 40 41 49 38 32 28 33 23 20 20 18 22 22 21 21 20 17 20 19 17
19 19 20 23 27 22 20 18 21 24 34 37 34 34 31 34 31 24 22 23 25 29 32 36 40 38 36 48 38 40 34 30 26 21 17 15 24 26 24 25 25 22 23 22 20
20 20 21 23 25 23 21 16 16 19 20 24 28 35 33 35 32 27 23 21 26 29 30 34 35 29 39 46 37 42 42 28 21 18 14 16 7 15 21 25 21 23 28 26 25
21 21 22 21 24 21 19 16 15 15 6 6 14 18 19 36 12 18 28 25 26 25 27 34 30 39 39 54 45 36 30 27 21 16 7 12 9 19 15 18 22 20 27 28 29
22 21 21 19 18 16 17 13 11 7 7 9 11 15 18 25 24 11 27 29 23 21 30 30 27 32 40 40 40 30 27 25 17 11 9 17 16 13 17 16 18 20 25 32 30
20 20 19 16 16 13 14 14 7 9 5 9 14 19 23 25 26 19 26 29 25 23 26 25 43 17 43 25 43 29 34 8 7 8 7 11 14 17 4 11 10 13 23 26 29
20 21 17 14 16 13 15 19 12 8 20 16 15 17 26 20 26 21 18 24 30 30 15 21 13 39 32 33 30 44 35 14 9 10 13 10 8 8 13 13 13 10 15 25 29
21 23 20 11 15 15 19 23 11 11 17 15 9 17 16 21 15 25 23 27 29 40 1 16 15 19 32 31 39 34 39 8 9 7 13 11 11 5 8 5 9 15 21 26 29
24 24 19 16 17 18 25 33 18 18 15 8 12 14 14 22 18 21 16 18 26 30 13 8 10 19 28 34 31 22 21 9 5 7 6 9 9 7 9 5 6 17 20 29 30
25 22 18 14 15 24 33 36 28 26 22 13 9 13 14 22 20 23 10 7 25 20 23 11 16 14 26 17 33 28 18 8 9 1 3 6 6 11 6 4 5 9 18 24 31
25 19 13 12 19 22 32 34 25 19 11 14 8 12 14 20 22 20 19 14 19 19 19 9 6 7 11 16 22 16 23 18 13 6 7 5 7 11 5 2 3 4 9 19 30
22 20 14 11 24 25 29 28 30 21 14 18 12 12 16 19 17 18 15 19 15 26 11 16 4 7 7 15 18 20 13 20 16 7 14 10 7 9 12 7 2 2 2 12 23
22 13 18 22 23 24 26 27 22 14 21 19 12 13 16 19 19 15 11 13 15 23 11 8 6 6 6 12 19 21 23 21 20 16 14 16 6 8 9 9 6 4 2 3 17
24 19 18 18 21 17 23 20 11 8 18 22 13 19 19 19 22 9 17 13 17 24 20 7 2 8 3 4 13 14 20 23 23 23 16 16 18 13 9 9 13 13 12 10 11
28 25 21 23 16 19 17 29 30 20 20 27 23 20 19 14 22 16 19 20 16 18 27 17 2 3 6 8 10 15 20 24 27 26 24 21 19 10 16 15 17 17 19 18 17
28 23 22 16 15 19 21 22 19 21 26 31 24 19 20 18 14 6 16 18 10 14 31 25 6 3 5 8 8 13 24 23 24 26 25 28 25 16 22 18 16 16 19 21 23
Wind_Direction
289 294 296 288 281 275 270 264 258 253 245 246 259 248 257 255 258 255 253 253 246 244 242 239 237 233 233 238 234 236 235 240 239 243 250 257 256 251 266 240 239 239 237 247 239
284 293 296 289 281 278 277 273 267 258 249 250 253 248 251 252 258 262 254 245 241 241 235 233 231 228 229 235 231 227 232 237 239 245 245 244 261 267 271 252 252 257 265 256 253
283 296 304 294 288 285 283 281 276 268 259 254 251 251 239 250 261 263 254 248 244 247 241 233 226 217 226 226 226 232 234 238 240 245 241 250 252 270 270 248 246 257 249 257 257
288 302 310 303 293 292 291 286 278 271 264 257 251 249 248 249 255 265 271 252 245 250 246 237 228 220 215 223 225 231 238 237 240 245 247 253 261 263 259 261 262 253 250 256 252
288 296 304 310 304 304 303 293 286 275 262 253 249 249 249 245 236 247 252 242 234 230 235 240 231 225 221 225 223 229 235 239 238 238 247 255 257 262 261 264 260 259 261 250 252
283 286 297 309 308 321 316 299 284 273 264 251 246 244 243 243 241 240 241 234 245 236 230 234 233 226 230 221 224 228 230 234 242 239 246 255 259 261 258 264 268 266 254 248 250
282 279 286 304 303 327 322 306 286 271 262 247 241 239 240 243 246 243 249 250 244 233 229 225 230 220 231 222 217 225 232 239 230 234 242 256 261 255 263 270 269 268 258 249 250
284 276 275 287 286 322 328 318 295 273 259 249 243 239 248 243 247 246 246 246 242 241 239 233 235 221 223 220 210 224 226 234 230 233 238 233 253 247 256 248 260 264 250 250 252
289 279 273 274 277 284 308 310 304 282 258 245 244 244 254 253 246 251 249 249 246 233 233 226 227 227 219 220 217 218 226 221 227 223 228 229 253 254 239 252 258 254 257 256 255
288 282 273 268 272 275 283 296 289 271 253 240 235 244 251 259 253 240 244 245 241 239 231 224 221 224 219 215 217 222 212 219 224 219 222 232 241 239 233 256 253 248 240 257 249
285 286 275 269 270 272 284 281 277 258 248 247 251 245 252 259 244 244 246 241 229 225 225 221 217 219 214 214 223 209 212 213 223 215 226 233 239 241 234 245 256 233 245 246 235
280 285 280 271 268 270 277 278 288 273 256 256 249 248 246 250 250 245 237 231 219 222 226 220 222 221 219 212 223 209 215 210 211 204 214 227 237 240 240 242 246 232 235 237 229
272 279 283 273 266 270 276 290 290 267 258 256 256 259 247 251 246 243 233 230 220 223 220 221 224 222 217 217 215 217 212 207 197 201 221 233 254 244 240 239 235 227 229 225 223
266 275 278 278 271 263 271 291 284 260 258 265 260 248 238 243 243 217 226 227 219 224 221 232 231 227 216 216 208 214 210 214 192 195 217 209 279 211 213 232 234 223 227 224 215
261 270 275 279 275 273 277 287 276 239 265 248 228 230 229 225 220 231 223 219 218 221 215 227 224 220 217 211 221 217 199 180 188 197 218 212 235 252 212 208 221 226 227 222 217
254 264 274 281 275 275 276 288 267 207 245 219 219 221 208 213 202 249 212 218 222 231 232 240 222 212 219 218 209 192 177 162 170 189 224 226 213 253 214 215 229 230 226 219 211
257 259 270 276 273 268 270 262 227 230 234 234 229 222 214 207 203 214 199 206 206 212 226 229 231 234 214 208 209 173 179 155 160 192 215 193 210 228 195 214 211 238 218 207 199
262 266 269 271 260 252 261 244 226 249 236 245 227 216 199 187 201 209 213 218 210 221 210 202 235 218 203 201 189 184 178 160 167 186 190 162 221 222 219 218 241 211 209 201 192
265 266 271 262 246 245 241 224 233 244 260 244 200 202 192 187 198 210 232 222 214 216 219 186 231 234 201 187 187 181 214 154 122 82 150 176 213 222 226 240 209 212 206 200 196
261 270 271 257 246 223 233 233 242 250 270 207 189 185 189 187 194 204 221 219 215 221 205 258 251 206 191 178 179 178 176 168 160 154 178 160 190 148 165 188 207 212 213 206 203
258 264 269 252 222 218 225 240 246 257 277 171 208 201 206 191 200 202 226 235 212 214 218 203 214 190 144 173 186 177 185 174 193 191 213 162 167 138 153 177 224 220 221 218 209
256 251 261 246 211 232 243 240 250 259 261 193 243 215 205 196 207 208 214 200 209 206 219 223 201 124 118 166 181 185 195 195 195 161 241 347 122 178 178 189 220 219 224 220 215
245 244 248 239 225 249 245 257 253 264 228 198 212 204 197 203 210 217 215 221 194 205 177 191 211 140 93 119 179 197 200 205 214 255 212 209 137 189 214 231 144 169 237 233 213
225 223 226 233 239 253 245 261 253 266 195 201 208 213 198 200 209 213 202 214 218 202 169 183 290 153 179 198 178 194 200 200 210 226 224 216 168 174 205 223 237 287 222 280 223
224 223 222 226 242 251 254 249 247 208 202 202 219 206 199 200 204 205 199 193 211 193 204 218 297 217 200 165 187 201 208 213 220 226 228 226 234 232 250 254 261 267 258 266 249
227 225 230 239 249 263 265 260 253 229 209 210 215 212 209 206 204 210 196 198 202 202 210 206 258 194 223 208 196 210 215 219 227 230 235 236 236 257 228 230 256 267 259 261 254
228 234 238 243 250 255 262 276 278 221 210 223 207 206 214 212 224 217 208 205 221 226 198 202 196 190 194 191 207 240 225 223 228 231 229 233 240 255 263 264 269 263 254 251 261
Height
3080 3081 3080 3079 3077 3077 3078 3078 3077 3077 3078 3079 3081 3082 3083 3082 3080 3082 3085 3090 3091 3092 3096 3101 3104 3109 3113 3117 3121 3126 3128 3126 3129 3131 3132 3133 3130 3131 3130 3130 3131 3132 3132 3132 3132
3077 3077 3077 3074 3072 3072 3072 3073 3072 3072 3073 3074 3075 3076 3078 3077 3077 3074 3083 3083 3084 3084 3089 3094 3098 3103 3106 3111 3116 3118 3120 3121 3126 3127 3128 3129 3127 3128 3127 3127 3129 3130 3130 3129 3128
3074 3072 3072 3069 3067 3066 3067 3068 3068 3067 3067 3068 3069 3070 3072 3073 3072 3068 3073 3078 3080 3081 3084 3088 3093 3097 3102 3107 3110 3113 3112 3120 3122 3124 3123 3124 3123 3123 3123 3123 3124 3126 3126 3126 3123
3071 3068 3067 3065 3063 3061 3063 3063 3063 3062 3062 3062 3063 3063 3066 3069 3072 3061 3066 3074 3075 3077 3080 3083 3088 3091 3095 3098 3106 3108 3110 3113 3118 3119 3118 3117 3118 3118 3119 3119 3119 3118 3119 3119 3121
3067 3064 3064 3062 3059 3056 3056 3057 3057 3057 3056 3056 3056 3057 3059 3058 3060 3060 3064 3067 3068 3071 3074 3079 3083 3088 3088 3096 3101 3101 3107 3110 3112 3115 3113 3112 3112 3111 3111 3115 3115 3115 3114 3116 3118
3062 3061 3060 3059 3056 3052 3051 3052 3051 3052 3052 3052 3050 3051 3052 3051 3057 3057 3059 3063 3066 3068 3070 3074 3077 3084 3087 3090 3093 3097 3102 3105 3107 3108 3109 3108 3108 3109 3108 3111 3110 3109 3109 3111 3112
3057 3057 3056 3055 3052 3048 3046 3047 3046 3046 3047 3047 3046 3047 3045 3048 3048 3052 3054 3058 3061 3065 3067 3069 3073 3079 3081 3085 3089 3093 3097 3098 3100 3104 3106 3107 3103 3102 3105 3107 3105 3105 3105 3105 3107
3053 3052 3052 3051 3049 3044 3043 3043 3042 3042 3042 3043 3043 3042 3037 3044 3044 3046 3048 3050 3054 3058 3061 3066 3068 3070 3074 3077 3080 3087 3091 3090 3093 3099 3101 3102 3096 3101 3102 3102 3102 3100 3100 3100 3102
3048 3047 3047 3046 3045 3040 3039 3039 3038 3037 3037 3038 3038 3038 3034 3038 3039 3042 3043 3045 3049 3053 3056 3059 3062 3065 3070 3072 3077 3074 3078 3082 3090 3093 3096 3096 3093 3096 3099 3098 3097 3099 3099 3098 3098
3043 3042 3042 3041 3040 3036 3035 3034 3034 3032 3032 3031 3032 3036 3031 3033 3034 3035 3038 3040 3043 3046 3051 3052 3056 3057 3061 3065 3062 3069 3073 3078 3082 3088 3089 3091 3090 3093 3095 3094 3094 3096 3095 3096 3096
3037 3036 3036 3036 3034 3032 3031 3030 3032 3027 3022 3024 3024 3026 3024 3027 3029 3031 3033 3035 3038 3041 3042 3045 3048 3046 3049 3057 3061 3069 3071 3075 3078 3082 3085 3086 3086 3087 3089 3091 3091 3091 3091 3093 3094
3032 3031 3030 3030 3028 3026 3024 3024 3023 3021 3016 3017 3018 3019 3019 3021 3023 3026 3028 3030 3032 3033 3039 3044 3038 3042 3049 3054 3058 3060 3065 3068 3075 3076 3081 3082 3081 3082 3084 3085 3087 3086 3087 3089 3091
3026 3025 3024 3023 3022 3021 3019 3019 3018 3017 3013 3008 3010 3011 3015 3015 3016 3019 3022 3024 3027 3029 3031 3031 3030 3038 3044 3048 3052 3055 3057 3064 3069 3074 3075 3078 3075 3074 3076 3079 3078 3081 3082 3084 3086
3020 3020 3018 3017 3018 3015 3014 3015 3015 3015 3008 2999 2999 2997 3004 3005 3007 3013 3015 3020 3020 3021 3026 3025 3030 3031 3037 3039 3044 3049 3053 3058 3064 3067 3071 3073 3067 3065 3069 3070 3072 3074 3076 3079 3081
3014 3014 3012 3012 3011 3010 3010 3009 3010 3011 3006 2996 2993 2994 2995 3000 3005 3005 3010 3014 3014 3017 3020 3015 3020 3025 3028 3029 3039 3042 3040 3053 3060 3065 3067 3069 3070 3063 3064 3066 3066 3069 3070 3073 3077
3008 3009 3007 3007 3007 3005 3004 3005 3006 3008 2996 2991 2989 2989 2992 2994 2999 3002 3004 3008 3014 3014 3012 3012 3015 3019 3021 3027 3031 3037 3045 3050 3057 3062 3063 3062 3064 3057 3057 3061 3063 3063 3064 3067 3071
3003 3003 3003 3002 3002 3000 2999 3003 3005 2998 2991 2987 2985 2986 2988 2990 2995 2999 3000 3002 3005 3008 3005 3005 3006 3009 3015 3017 3018 3025 3037 3044 3051 3056 3053 3054 3058 3055 3055 3057 3059 3058 3059 3062 3067
2997 2997 2998 2998 2997 2996 2996 2999 2995 2986 2984 2983 2983 2984 2985 2988 2993 2996 2998 3000 3002 3003 2998 3001 3009 3002 3006 3012 3014 3022 3029 3028 3035 3042 3045 3053 3053 3051 3052 3054 3054 3056 3058 3061 3065
2993 2992 2992 2994 2992 2991 2994 2991 2985 2982 2981 2980 2982 2982 2984 2987 2992 2995 2993 2994 2997 2997 2996 2997 3000 3001 3004 3010 3014 3023 3025 3026 3029 3033 3038 3045 3048 3049 3049 3050 3051 3053 3055 3058 3062
2988 2987 2987 2988 2988 2987 2988 2982 2980 2978 2979 2979 2981 2982 2984 2986 2990 2991 2989 2987 2993 2995 2997 2996 2997 2990 2997 3005 3013 3016 3025 3028 3029 3035 3035 3038 3041 3041 3047 3048 3049 3050 3052 3055 3059
2983 2982 2982 2982 2982 2983 2979 2974 2976 2977 2977 2979 2981 2982 2983 2984 2986 2988 2984 2986 2989 2995 2996 2996 2998 2990 2993 3004 3009 3016 3019 3025 3028 3031 3028 3031 3038 3041 3045 3046 3047 3048 3049 3051 3055
2976 2978 2977 2977 2979 2975 2971 2970 2973 2973 2974 2977 2981 2981 2981 2983 2983 2986 2986 2988 2987 2992 2992 2993 2994 2992 2996 3004 3012 3017 3021 3026 3026 3034 3033 3033 3038 3040 3043 3044 3045 3046 3046 3048 3051
2970 2972 2972 2973 2971 2969 2966 2966 2969 2971 2973 2975 2978 2979 2981 2982 2985 2984 2985 2986 2988 2992 2993 2996 2994 2997 2997 3008 3014 3015 3020 3025 3029 3030 3032 3035 3036 3039 3041 3042 3043 3044 3044 3045 3049
2966 2967 2968 2966 2966 2966 2965 2964 2965 2966 2968 2972 2975 2978 2978 2980 2981 2981 2984 2986 2986 2989 2991 2996 2993 2996 2999 3003 3008 3013 3017 3023 3027 3029 3031 3033 3035 3036 3039 3040 3042 3044 3044 3045 3047
2959 2960 2961 2960 2961 2963 2962 2960 2961 2963 2966 2970 2970 2973 2975 2978 2980 2981 2984 2988 2988 2990 2993 2997 2998 2999 3001 3003 3006 3011 3016 3019 3023 3027 3029 3032 3034 3036 3038 3038 3039 3041 3043 3045 3046
2953 2956 2956 2957 2958 2958 2958 2953 2955 2959 2963 2964 2966 2970 2973 2976 2977 2980 2983 2987 2988 2991 2993 2997 3000 3001 3003 3004 3009 3012 3014 3017 3019 3022 3026 3029 3029 3032 3032 3034 3035 3038 3039 3041 3043
2949 2952 2953 2954 2954 2953 2951 2949 2948 2950 2954 2959 2963 2967 2971 2975 2978 2981 2983 2985 2988 2989 2993 2997 3000 3003 3004 3006 3009 3011 3009 3012 3015 3016 3021 3021 3026 3030 3027 3030 3032 3032 3034 3036 3037